EST,Max TemperatureF,Mean TemperatureF,Min TemperatureF,Max Dew PointF,MeanDew PointF,Min DewpointF,Max Humidity, Mean Humidity, Min Humidity, Max Sea Level PressureIn, Mean Sea Level PressureIn, Min Sea Level PressureIn, Max VisibilityMiles, Mean VisibilityMiles, Min VisibilityMiles, Max Wind SpeedMPH, Mean Wind SpeedMPH, Max Gust SpeedMPH,PrecipitationIn, CloudCover, Events, WindDirDegrees
2011-12-1,46,40,32,36,33,29,88,68,61,30.26,30.06,29.85,10,10,10,17,9,25,0.00,4,,341
2011-12-2,50,39,28,39,32,26,93,70,44,30.40,30.30,30.26,10,10,10,13,3,20,0.00,1,,253
2011-12-3,46,39,30,34,31,27,88,68,53,30.66,30.59,30.41,10,10,10,16,9,23,0.00,6,,19
2011-12-4,51,39,27,49,38,25,93,85,68,30.61,30.52,30.42,10,10,9,10,3,16,0.00,1,,181
2011-12-5,55,48,42,54,47,40,100,97,92,30.40,30.34,30.25,10,4,0,12,2,,0.00,5,Fog,189
2011-12-6,60,52,44,56,52,44,100,96,83,30.22,30.09,29.92,10,7,0,16,5,23,0.04,5,Fog-Rain,201
2011-12-7,57,54,50,57,53,50,100,98,94,29.91,29.72,29.39,10,4,1,15,7,,0.97,8,Rain,271
2011-12-8,57,44,30,55,35,23,100,73,40,30.28,29.73,29.16,10,8,1,30,10,43,0.28,3,Rain,293
2011-12-9,51,38,26,45,35,23,97,81,59,30.37,30.30,30.20,10,10,9,13,3,21,0.00,1,,192
2011-12-10,46,41,35,43,32,17,96,67,46,30.39,30.21,30.12,10,10,5,14,5,23,0.00,5,Rain,336
2011-12-11,39,31,23,23,19,16,88,61,43,30.62,30.56,30.40,10,10,10,14,7,25,0.00,0,,326
2011-12-12,46,34,23,37,29,19,96,81,61,30.59,30.52,30.40,10,10,7,12,3,,0.00,0,,224
2011-12-13,45,38,30,37,32,22,100,77,47,30.39,30.30,30.22,10,9,7,14,4,22,0.00,3,,359
2011-12-14,46,39,32,36,33,27,82,69,60,30.40,30.34,30.28,10,9,1,14,8,20,0.00,7,,27
2011-12-15,55,44,32,52,44,28,94,82,70,30.34,29.97,29.74,10,9,3,26,11,39,0.04,7,Rain,206
2011-12-16,55,47,39,51,34,27,90,60,41,30.06,29.89,29.66,10,10,8,28,14,38,0.00,1,,275
2011-12-17,43,38,34,31,28,22,82,66,54,30.06,30.03,29.98,10,10,8,17,8,29,0.00,5,Snow,338
2011-12-18,33,30,23,27,21,9,86,70,51,30.26,30.14,30.05,10,7,1,18,13,26,0.00,7,Snow,2
2011-12-19,48,32,15,38,24,7,74,63,53,30.26,30.07,29.86,10,10,10,26,11,40,0.00,3,,237
2011-12-20,46,34,21,33,25,17,85,61,43,30.24,30.08,29.86,10,10,10,16,11,28,0.00,2,,324
2011-12-21,57,42,26,56,45,23,100,87,68,30.21,29.97,29.65,10,8,1,23,8,34,0.09,8,Rain,186
2011-12-22,57,48,39,55,43,35,97,75,49,30.09,29.91,29.63,10,10,8,26,13,34,0.02,2,Rain,271
2011-12-23,45,40,36,44,38,25,97,86,64,30.13,29.93,29.79,10,8,4,16,7,24,0.41,6,Rain,355
2011-12-24,36,31,26,26,20,15,70,62,54,30.46,30.32,30.15,10,10,10,15,11,23,0.00,7,,15
2011-12-25,46,32,18,39,29,15,97,78,59,30.47,30.18,29.87,10,9,2,15,4,25,0.08,6,Rain,205
2011-12-26,43,34,23,37,30,20,100,74,53,30.24,30.00,29.81,10,9,2,22,6,33,0.00,4,,338
2011-12-27,52,38,23,50,38,20,94,83,68,30.20,29.90,29.42,10,9,3,21,6,37,0.14,4,Rain,173
2011-12-28,55,42,30,54,37,16,100,74,50,29.63,29.38,29.30,10,9,3,23,15,34,0.09,4,Rain,238
2011-12-29,33,29,25,16,9,2,58,43,29,30.05,29.88,29.65,10,10,10,17,12,24,0.00,1,,271
2011-12-30,46,35,24,43,32,11,93,75,43,30.10,30.07,30.05,10,10,10,9,4,17,0.00,3,,164
2011-12-31,53,46,39,52,45,37,100,95,86,30.03,29.85,29.75,10,6,0,14,6,20,0.05,7,Fog-Rain,273